Regional Weather Roundup
Issued by NWS

Home | Current Version | Previous Version | Graphics & Text | Print | Product List | Glossary On
Versions: 1 2 3 4 5 6 7 8 9 10 11 12 13 14 15 16 17 18 19 20 21 22 23 24 25 26 27
000
ASUS45 KTFX 270210
RWRMT
MONTANA REGIONAL WEATHER ROUNDUP
NATIONAL WEATHER SERVICE GREAT FALLS MT
800 PM MDT SUN MAR 26 2017

NOTE: "FAIR" INDICATES FEW OR NO CLOUDS BELOW 12000 FEET WITH NO
SIGNIFICANT WEATHER AND/OR OBSTRUCTIONS TO VISIBILITY.

MTZ001>007-043-270300-
WEST OF THE DIVIDE

CITY           SKY/WX    TMP DP  RH WIND       PRES   REMARKS
KALISPELL      CLOUDY    47  29  49 S6        29.80F
MISSOULA       CLOUDY    46  34  62 W14G23    29.84R
BUTTE          CLOUDY    44  24  45 SE17      29.84R
MULLAN PASS    SNOW      31  30  96 S5        29.79S VSB<1/4
ANACONDA         N/A     45  25  45 S16       29.85R
DEER LODGE       N/A     48  18  29 SW3G16    29.84R
EUREKA           N/A     46  28  49 CALM      29.80F
HAMILTON         N/A     48  28  46 S12       29.83F
RONAN            N/A     50  28  42 E3        29.87S
$$

MTZ008-052>055-270300-
SOUTHWEST MONTANA

CITY           SKY/WX    TMP DP  RH WIND       PRES   REMARKS
BOZEMAN        CLOUDY    49  22  34 S8        29.83S
DILLON         CLOUDY    40  29  64 SW18      29.89R
W YELLOWSTONE  CLOUDY    36  21  55 SW3       29.94R
ENNIS          CLOUDY    45  21  39 S16G25    29.91F
THREE FORKS      N/A     50  50 100 S21       29.83F
$$

MTZ009-010-012-014-046-048-049-054-270300-
EAST SLOPES AND CENTRAL MONTANA

CITY           SKY/WX    TMP DP  RH WIND       PRES   REMARKS
CUT BANK       CLOUDY    45  21  38 W14       29.81S
GREAT FALLS    CLOUDY    49  20  31 CALM      29.81R
MALMSTROM AFB  CLOUDY    47  20  34 E7        29.81S
HELENA         CLOUDY    50  23  34 W6        29.79R
AUGUSTA        MOCLDY    43  21  42 NW6       29.81S
BOWMANS CRNR   MOCLDY    45  18  34 N7        29.79S
CHOTEAU          N/A     46  19  34 NW7       29.83S
CONRAD           N/A     44  25  47 CALM      29.86S
FAIRFIELD      MOCLDY    48  17  28 CALM      29.80S
POWER            N/A     44  17  33 W5        29.81R
RAYNESFORD     MOCLDY    47  18  30 E3        29.82S
$$

MTZ011-013-016-021-045-047-050-051-270300-
NORTH CENTRAL MONTANA

CITY           SKY/WX    TMP DP  RH WIND       PRES   REMARKS
HAVRE          CLOUDY    46  30  53 SE3       29.85R
LEWISTOWN      CLOUDY    45  18  34 N5        29.84R
N BAR RANCH    CLOUDY    43  21  42 NW6       29.86R
CHINOOK          N/A     48  18  29 CALM      29.86S
DENTON         MOCLDY    46  18  31 NE5       29.80S
FORT BENTON      N/A     48  12  23 MISG      29.82F
GEYSER         MOCLDY    45  16  31 E12       29.82S
GRASS RANGE      N/A     44  27  51 NE6       29.81R
STANFORD       MOCLDY    43  18  37 E7        29.83F
WINIFRED         N/A     40  24  51 E10       29.83S
$$

MTZ017>020-022>027-061-062-270300-
NORTHEAST MONTANA

CITY           SKY/WX    TMP DP  RH WIND       PRES   REMARKS
GLASGOW        PTCLDY    46  24  42 NE5       29.87S
JORDAN           N/A     49  27  42 NE12      29.85S
SIDNEY         CLEAR     48  26  42 NW12      29.88R
WOLF POINT     CLEAR     47  28  47 NW5       29.89R
MALTA          CLEAR     45  25  45 N7        29.86S
PLENTYWOOD       N/A     48  25  40 CALM      29.89R
POPLAR           N/A     48  25  40 CALM      29.90R
$$

MTZ028>42-056>058-270300-
SOUTHCENTRAL AND SOUTHEAST MONTANA

CITY           SKY/WX    TMP DP  RH WIND       PRES   REMARKS
BAKER          PTCLDY    47  30  51 SW6       29.89R
BILLINGS       MOCLDY    54  27  35 SE8       29.84R
LIVINGSTON     CLOUDY    49  21  33 SW14      29.82S
MILES CITY     CLEAR     55  26  32 CALM      29.85F
BIG TIMBER     MOCLDY    48  27  43 E3        29.85F
FORSYTH          N/A     50  30  46 SE3       29.85R
HARLOWTON      MOCLDY    48  24  39 SE3       29.83F
LAUREL           N/A     52  26  36 E2        29.85
$$

REGIONAL REPORTS...DAKOTAS

CITY           SKY/WX    TMP DP  RH WIND       PRES   REMARKS
WILLISTON      CLOUDY    51  25  36 NW12      29.87R
MINOT          PTCLDY    47  39  74 SE8       29.87S
DICKINSON      MOCLDY    46  27  47 CALM      29.86S
BEACH            N/A    N/A N/A N/A MISG        N/A
TIOGA            N/A     45  36  70 CALM      29.88S
WATFORD CITY     N/A     50  34  53 CALM      29.87S
BISMARCK       PTCLDY    46  35  65 SE5       29.92R
GRAND FORKS    PTCLDY    37  36  96 CALM      29.95R
FARGO          CLOUDY    39  37  92 E3        29.95R
BUFFALO SD       N/A     46  37  71 S10       29.84R
RAPID CITY     CLOUDY    42  39  89 CALM      29.93S
$$

REGIONAL REPORTS...WYOMING/IDAHO/WASHINGTON

CITY           SKY/WX    TMP DP  RH WIND       PRES   REMARKS
GILLETTE       CLEAR     43  34  70 SE8       29.90R
SHERIDAN       CLOUDY    46  34  62 S8        29.86F
BUFFALO WY     CLOUDY    47  30  51 SE5       29.90S
CODY           CLOUDY    49  18  29 W9        29.86R
YELLOWSTONE LA   N/A     31  19  61 VRB3      29.96S
IDAHO FALLS    LGT RAIN  45  34  65 SW10      29.95R
SALMON         CLOUDY    46  28  49 E6        29.84S
BOISE          CLOUDY    50  35  56 E13       29.88F
SPOKANE        CLOUDY    44  38  79 S3        29.82R
$$

REGIONAL REPORTS...ALBERTA

CITY           SKY/WX    TMP DP  RH WIND       PRES   REMARKS
EDMONTON       CLEAR     37  28  70 SE3       29.79S
CALGARY        MOCLDY    45  18  33 SE14      29.73S
LETHBRIDGE     CLOUDY    43  18  36 SW8       29.78S
MEDICINE HAT   CLOUDY    48  18  29 E3        29.81S
WATERTON GATE    N/A     43  21  42 SW14G20     N/A
CARDSTON         N/A     43  18  36 S7          N/A
MILK RIVER       N/A     41  16  36 W6          N/A
ONEFOUR          N/A     39  18  41 SE8         N/A
$$

REGIONAL REPORTS...SASKATCHEWAN

CITY           SKY/WX    TMP DP  RH WIND       PRES   REMARKS
SWIFT CURRENT  CLEAR     39  30  70 NE9       29.84R
REGINA         PTCLDY    45  27  49 N5        29.85S
SASKATOON      CLOUDY    30  28  93 NE6       29.95R WCI  24
CYPRESS HILLS    N/A     37   9  30 W3          N/A
VAL MARIE        N/A     37  23  56 SW3         N/A
ROCKGLEN         N/A     41  16  36 W6          N/A
ASSINIBOIA       N/A     37  34  87 SE7         N/A
$$




USA.gov is the U.S. government's official web portal to all federal, state and local government web resources and services.